This is the latest recevied weather packets stored in our database for station/object E7HQ-1. If no packets are shown the sender has not sent any weather packets the latest 10 day(s).
| Time | Temp. | Humidity | Pressure | Rain* | Wind** | Luminosity | Snow |
|---|---|---|---|---|---|---|---|
| 1778030038 | 12.22° C | 49% | 1025.5 hPa | - | - | - | - |
| 1778029138 | 12.22° C | 47% | 1025.3 hPa | - | - | - | - |
| 1778028238 | 12.22° C | 45% | 1025.4 hPa | - | - | - | - |
| 1778027338 | 12.78° C | 45% | 1025.3 hPa | - | - | - | - |
| 1778026437 | 12.78° C | 46% | 1025.2 hPa | - | - | - | - |
| 1778025537 | 12.78° C | 46% | 1025.2 hPa | - | - | - | - |
| 1778024636 | 12.78° C | 44% | 1025.3 hPa | - | - | - | - |
| 1778023741 | 13.33° C | 45% | 1025.3 hPa | - | - | - | - |
| 1778022841 | 13.33° C | 46% | 1025.4 hPa | - | - | - | - |
| 1778021941 | 12.78° C | 45% | 1025.5 hPa | - | - | - | - |
| 1778021041 | 12.78° C | 44% | 1025.6 hPa | - | - | - | - |
| 1778020140 | 12.78° C | 45% | 1025.6 hPa | - | - | - | - |
| 1778019240 | 12.78° C | 47% | 1025.6 hPa | - | - | - | - |
| 1778018340 | 13.33° C | 46% | 1025.6 hPa | - | - | - | - |
| 1778017440 | 13.33° C | 42% | 1025.8 hPa | - | - | - | - |
| 1778016539 | 13.33° C | 41% | 1025.8 hPa | - | - | - | - |
| 1778015639 | 13.33° C | 42% | 1025.8 hPa | - | - | - | - |
| 1778014739 | 13.33° C | 43% | 1025.7 hPa | - | - | - | - |
| 1778013839 | 13.33° C | 45% | 1025.7 hPa | - | - | - | - |
| 1778012938 | 13.33° C | 48% | 1025.8 hPa | - | - | - | - |
| 1778012038 | 13.33° C | 49% | 1025.9 hPa | - | - | - | - |
| 1778011138 | 13.33° C | 50% | 1026 hPa | - | - | - | - |
| 1778010238 | 13.89° C | 49% | 1025.9 hPa | - | - | - | - |
| 1778009337 | 13.89° C | 49% | 1025.9 hPa | - | - | - | - |
| 1778008437 | 13.89° C | 49% | 1025.8 hPa | - | - | - | - |
* Rain since midnight (hover to see other rain measurements)
** Current wind speed in m/s (hover to see current wind gust speed)